Preview of NWS' New Version of Forecast
This preview is not operational and should not be used for support decisions.

Regional Weather Roundup (RWR)

Issued by National Weather Service (NWS)

                            
000
ASUS43 KTOP 190759
RWRKS 

WEATHER ROUNDUP FOR KANSAS
NATIONAL WEATHER SERVICE GOODLAND KS
300 AM CDT FRI APR 19 2019

NOTE:  "FAIR" INDICATES FEW OR NO CLOUDS BELOW 12,000 FEET WITH NO
SIGNIFICANT WEATHER AND/OR OBSTRUCTIONS TO VISIBILITY.

KSZ001>006-013>018-027>032-041>047-190900-
NORTHWEST KANSAS
  
CITY           SKY/WX    TMP DP  RH WIND       PRES   REMARKS
GOODLAND       CLEAR     30  26  85 NW8       30.17F                  
HAYS           CLEAR     39  34  82 NW7       30.13S                  
HILL CITY      CLEAR     38  33  82 NW8       30.15S                  
RUSSELL        CLEAR     37  31  78 NW10      30.10S WCI  30          
$$

KSZ061>065-074>080-084>089-190900-
SOUTHWEST KANSAS
  
CITY           SKY/WX    TMP DP  RH WIND       PRES   REMARKS
DODGE CITY     CLEAR     41  31  67 N15       30.11R                  
GARDEN CITY    PTCLDY    37  32  82 NW10      30.16R WCI  30          
GREAT BEND       N/A     34  31  88 NW9       30.12R                  
LIBERAL        CLEAR     41  32  70 NW10      30.17F                  
$$

KSZ066>073-081>083-090>101-190900-
SOUTHEAST KANSAS
  
CITY           SKY/WX    TMP DP  RH WIND       PRES   REMARKS
CHANUTE        PTCLDY    50  41  71 N7        29.95R                  
COFFEYVILLE    MOCLDY    50  43  77 N8        29.93R                  
HUTCHINSON     CLEAR     45  35  68 N13G22    30.07R                  
MEDICINE LODGE   N/A     45  36  70 N8        30.08R                  
NEWTON         CLEAR     43  38  82 N15       30.05R                  
PARSONS          N/A     46  41  82 NW6       29.95R                  
WICHITA INTL   PTCLDY    47  37  68 N15       30.03S                  
WICHITA JABRA  CLEAR     45  38  76 N15G26    30.03R                  
WICHITA MCCONL CLEAR     47  38  70 N20G26    30.02R                  
WINFIELD       PTCLDY    47  39  74 N14       30.01R                  
$$

KSZ007>012-019>026-033>040-048>060-102>105-190900-
NORTHEAST KANSAS
  
CITY           SKY/WX    TMP DP  RH WIND       PRES   REMARKS
CONCORDIA        N/A    N/A N/A N/A MISG      30.08S                  
EMPORIA        PTCLDY    46  40  79 N12       29.99S                  
LAWRENCE       CLEAR     46  38  73 N12       29.98R                  
MANHATTAN      CLEAR     46  38  73 N6        30.05S                  
OLATHE IND     CLEAR     46  39  76 NW10      29.96S                  
OLATHE EXE     CLEAR     47  37  68 N9        29.95R                  
SALINA         CLEAR     42  36  79 NW8       30.09R                  
TOPEKA BILLARD PTCLDY    47  38  71 NW10      29.99S                  
TOPEKA FORBES  PTCLDY    48  38  68 N13       29.98F                  
$$